Home > Weather > Tashkent > Past weeks

Flag for Uzbekistan Past Weather in Tashkent, Uzbekistan — Yesterday and Last 2 Weeks

Now
93 °F

Sunny.


Feels Like: 89 °F
Forecast: 70 / 95 °F
Wind: 7 mph from West

Location: Tashkent

Current Time: Aug 27, 2016 at 4:52:21 PM

Latest Report: Aug 27, 2016 at 4:00 PM


Visibility: 10 mi

Pressure: 29.89 "Hg

Humidity: 14%

Dew Point: 37 °F

Location of TashkentLocation

Past Weather in Tashkent — Graph

°F

Tashkent Temperature Yesterday

Maximum temperature yesterday: 93 °F (at 12:30 PM)
Minimum temperature yesterday: 66 °F (at 4:30 AM)
Average temperature yesterday: 81 °F

High & Low Weather Summary for the Past Weeks

 TemperatureHumidityPressure
High102 °F (Aug 12, 3:30 PM)65% (Aug 17, 1:00 AM)29.98 "Hg (Aug 17, 1:00 AM)
Low63 °F (Aug 24, 3:30 AM)11% (Aug 26, 4:00 PM)29.65 "Hg (Aug 14, 3:00 PM)
Average83 °F33%29.80 "Hg
* Reported Aug 12 3:00 PM — Aug 27 3:30 PM, Tashkent, Weather by CustomWeather, © 2016

Note: Actual official high and low records may vary slightly from our data, if they occured in-between our weather recording intervals... More about our weather records

Advertising

Tashkent Weather History for the Previous 24 Hours

Scroll right to see more
 ConditionsComfort  
Time TempWeatherWind HumidityBarometerVisibility
3:30 PM
Sat, Aug 27
93 °FPassing clouds.8 mph14%29.89 "HgN/A
3:00 PM95 °FSunny.6 mph11%29.89 "Hg10 mi
2:30 PM93 °FPassing clouds.9 mph13%29.89 "HgN/A
2:00 PM93 °FSunny.7 mph14%29.92 "Hg10 mi
1:30 PM93 °FPassing clouds.6 mph13%29.92 "HgN/A
1:00 PM93 °FPassing clouds.5 mph16%29.92 "HgN/A
12:30 PM91 °FPassing clouds.6 mph15%29.92 "HgN/A
12:00 PM90 °FSunny.6 mph18%29.95 "Hg10 mi
11:30 AM88 °FPassing clouds.6 mph19%29.95 "HgN/A
11:00 AM88 °FSunny.5 mph22%29.95 "Hg10 mi
10:30 AM86 °FPassing clouds.5 mph24%29.95 "HgN/A
10:00 AM82 °FPassing clouds.6 mph25%29.95 "HgN/A
9:30 AM81 °FPassing clouds.6 mph28%29.95 "HgN/A
9:00 AM79 °FPassing clouds.6 mph28%29.95 "HgN/A
8:30 AM79 °FPassing clouds.5 mph30%29.95 "HgN/A
8:00 AM77 °FPassing clouds.5 mph30%29.95 "HgN/A
7:30 AM72 °FSunny.6 mph36%29.95 "Hg10 mi
7:00 AM70 °FSunny.6 mph38%29.95 "Hg10 mi
6:30 AM70 °FSunny.8 mph35%29.95 "Hg10 mi
6:00 AM66 °FSunny.5 mph40%29.95 "Hg10 mi
5:30 AM66 °FClear.5 mph43%29.92 "Hg10 mi
5:00 AM68 °FClear.8 mph40%29.92 "Hg10 mi
4:30 AM66 °FClear.7 mph43%29.92 "Hg10 mi
4:00 AM64 °FPassing clouds.8 mph46%29.89 "HgN/A
3:30 AM66 °FClear.9 mph40%29.89 "Hg10 mi
3:00 AM70 °FClear.9 mph35%29.89 "Hg10 mi
2:30 AM64 °FClear.7 mph49%29.89 "Hg10 mi
2:00 AM68 °FClear.6 mph43%29.89 "Hg10 mi
1:30 AM72 °FClear.6 mph36%29.89 "Hg10 mi
1:00 AM73 °FClear.8 mph36%29.89 "Hg10 mi
12:30 AM72 °FPassing clouds.6 mph41%29.89 "HgN/A
12:00 AM72 °FClear.5 mph44%29.92 "Hg2 mi
11:30 PM
Fri, Aug 26
72 °FClear.6 mph44%29.92 "Hg2 mi
11:00 PM75 °FClear.5 mph36%29.92 "Hg2 mi
10:30 PM75 °FClear.2 mph34%29.92 "Hg2 mi
10:00 PM75 °FPassing clouds.5 mph31%29.92 "HgN/A
9:30 PM79 °FClear.1 mph28%29.92 "Hg10 mi
9:00 PM82 °FPassing clouds.5 mph23%29.92 "HgN/A
8:30 PM81 °FPassing clouds.5 mph24%29.92 "HgN/A
8:00 PM81 °FClear.7 mph26%29.92 "Hg10 mi
7:30 PM84 °FClear.5 mph22%29.92 "Hg10 mi
7:00 PM86 °FSunny.5 mph18%29.89 "Hg10 mi
6:30 PM90 °FPassing clouds.7 mph15%29.89 "HgN/A
6:00 PM91 °FPassing clouds.6 mph12%29.89 "HgN/A
5:30 PM93 °FPassing clouds.7 mph11%29.92 "HgN/A
5:00 PM93 °FPassing clouds.6 mph11%29.92 "HgN/A
4:30 PM93 °FPassing clouds.8 mph11%29.92 "HgN/A
4:00 PM93 °FSunny.7 mph11%29.92 "Hg10 mi
Weather by CustomWeather, © 2016

See weather overviewHow to use our weather pages